Starlink 30524

operational
NORAD ID: 57965 Int'l Des: 2023-151 Owner: SPXS Country: US Constellation: starlink
LEOCIRCULAR

Starlink 30524について

説明を読み込み中...

リアルタイム位置

3D地球を読み込み中...

次回通過

高度履歴

Altitude vs Time

uPlot chart will show altitude changes over time

軌道要素

1 57965U 23151B 25305.29754042 .00000001 00000-0 15144-4 0 9992
2 57965 43.0066 316.1483 0001288 266.5343 93.5352 15.02532649116425
Epoch: Nov 1, 2025 • Age: 21 hours

現在のステータス

高度 566.2 km
速度 7.58 km/s
衛星直下点 -29.25°S, 177.95°E
打ち上げ日 Sep 30, 2023
運用期間 2 years
タイプ internet

技術仕様

分類 Payload
質量 730.00 kg
乾燥質量 700.00 kg
総質量 730.00 kg
長さ 0.30 m
直径 4.10 m
スパン 29.00 m
形状 Box + pan
製造者 SPXS
バスタイプ Starlink V2M
フェーズステータス In Orbit
所有者/国 SPXS/US

大規模コンステレーション

Loading constellations...